Regional Weather Roundup
Issued by NWS

Home | Current Version | Previous Version | Text Only | Print | Product List | Glossary Off
Versions: 1 2 3 4 5 6 7 8 9 10 11 12 13 14 15 16 17 18 19 20 21 22 23 24 25 26 27 28 29 30 31 32 33 34 35 36 37 38 39 40 41 42 43 44 45 46 47 48 49 50

000
ASUS43 KOAX 221302
RWRNE

WEATHER ROUNDUP FOR NEBRASKA
NATIONAL WEATHER SERVICE OMAHA NE
800 AM CDT MON SEP 22 2014

NOTES: SATELLITE DATA IS BEING USED TO AUGMENT CLOUD COVER ABOVE
       12000 FEET.
       "FAIR" INDICATES FEW OR NO CLOUDS BELOW 12,000 FEET WITH NO
       SIGNIFICANT WEATHER AND/OR OBSTRUCTIONS TO VISIBILITY.

  * THESE STATIONS DO NOT REPORT WEATHER SUCH AS RAIN...SNOW OR FOG.

NEZ001>004-019>022-054>056-221400-
NEBRASKA PANHANDLE

CITY           SKY/WX    TMP DP  RH WIND       PRES   REMARKS
SCOTTSBLUFF    MOCLDY    57  43  59 SE9       30.15F
ALLIANCE       MOCLDY    55  41  59 SE17      30.17F
CHADRON        CLOUDY    59  42  53 S12       30.12S
KIMBALL        MOCLDY    54  41  62 S12       30.17F
SIDNEY         CLOUDY    58  41  53 S14       30.21F
$$

NEZ057>060-069>072-079>082-221400-
SOUTHWEST NEBRASKA

CITY           SKY/WX    TMP DP  RH WIND       PRES   REMARKS
NORTH PLATTE   CLEAR     52  45  77 S7        30.27S
IMPERIAL       MOCLDY    57  41  55 SE9       30.25F
LEXINGTON      CLEAR     51  47  87 S7        30.30S
MCCOOK         PTCLDY    53  44  71 SE5       30.29S
OGALLALA       MOCLDY    55  46  71 E6        30.24F
$$

NEZ005>010-023>029-035>040-094-221400-
NORTH CENTRAL NEBRASKA

CITY           SKY/WX    TMP DP  RH WIND       PRES   REMARKS
VALENTINE      PTCLDY    53  43  68 S5        30.22F
AINSWORTH      CLEAR     50  44  79 S10       30.25S
BROKEN BOW     CLEAR     42  40  92 SE3       30.29S
O`NEILL        CLEAR     46  44  93 S5        30.28S
ORD            CLEAR     40  39  97 CALM      30.29S
THEDFORD       PTCLDY    54  44  70 S6        30.27S
$$

NEZ041-046>049-061>064-073>077-083>087-221400-
SOUTH CENTRAL NEBRASKA

CITY           SKY/WX    TMP DP  RH WIND       PRES   REMARKS
GRAND ISLAND   CLEAR     48  43  82 SW5       30.32S
AURORA         CLEAR     47  45  91 CALM      30.31F
HASTINGS       CLEAR     51  43  74 S5        30.32R
HEBRON         CLEAR     43  41  93 CALM      30.33S
HOLDREGE       CLEAR     49  45  84 CALM      30.30S
KEARNEY *      PTCLDY    48  43  81 S5        30.31F
YORK           CLEAR     43  43 100 W6        30.32S
$$

NEZ011>018-030>034-042>045-221400-
NORTHEAST NEBRASKA

CITY           SKY/WX    TMP DP  RH WIND       PRES   REMARKS
NORFOLK        CLEAR     43  42  97 CALM      30.30S
ALBION         CLEAR     40  38  92 CALM      30.30F
BLAIR          CLEAR     52  47  84 SE3       30.31S
COLUMBUS *     CLEAR     39  37  93 CALM      30.32S
FREMONT        CLEAR     47  45  94 CALM      30.31S
TEKAMAH        FOG       44  43  96 CALM      30.31F VSB 1/4
WAYNE          CLEAR     40  39  97 CALM      30.31S
$$

NEZ050>053-065>068-078-088>093-221400-
SOUTHEAST NEBRASKA

CITY           SKY/WX    TMP DP  RH WIND       PRES   REMARKS
LINCOLN        CLEAR     48  44  86 CALM      30.32S
OMAHA EPPLEY   PTCLDY    49  48  97 CALM      30.32S
BEATRICE       CLEAR     43  42  96 CALM      30.31S
FALLS CITY     CLEAR     47  46  97 CALM      30.32R
NEBRASKA CITY    N/A     51  49  92 CALM      30.32S
PLATTSMOUTH    CLEAR     51  48  89 CALM      30.31F
$$

NEZ044-045-051>053-067-221400-
OMAHA AREA

CITY           SKY/WX    TMP DP  RH WIND       PRES   REMARKS
OMAHA EPPLEY   PTCLDY    49  48  97 CALM      30.32S
BLAIR          CLEAR     52  47  84 SE3       30.31S
FREMONT        CLEAR     47  45  94 CALM      30.31S
MILLARD        CLEAR     49  48  97 CALM      30.32S
OFFUTT AFB     CLEAR     46  46 100 E3        30.31S FOG
PLATTSMOUTH    CLEAR     51  48  89 CALM      30.31F
WAHOO          FAIR      45  43  92 CALM      30.31S
$$



USA.gov is the U.S. government's official web portal to all federal, state and local government web resources and services.